Regional Weather Roundup
Issued by NWS Green Bay, WI

Home | Current Version | Previous Version | Text Only | Print | Product List | Glossary On
Versions: 1 2 3 4 5 6 7 8 9 10 11 12 13 14 15 16 17 18 19 20 21 22 23 24 25 26 27 28 29 30 31 32 33 34 35 36 37 38 39 40 41 42 43 44 45 46 47 48 49 50
000
ASUS43 KGRB 262111
RWRGRB

NORTH-CENTRAL AND NORTHEAST WISCONSIN REGIONAL WEATHER ROUNDUP
NATIONAL WEATHER SERVICE GREEN BAY WI
400 PM CDT THU MAY 26 2016

WIZ005-009-010>012-018-019-262200-
NORTH CENTRAL WISCONSIN

CITY           SKY/WX    TMP DP  RH WIND       PRES   REMARKS
IRONWOOD       PTSUNNY   72  64  78 SW5       29.77F
MANITOWISH WTR NOT AVBL
ARBOR VITAE    PTSUNNY   72  61  69 SE6       29.83S
EAGLE RIVER      N/A     72  56  57 SW6       29.84R
LAND O LAKES   MOSUNNY   72  59  63 SW6       29.84S
RHINELANDER    MOSUNNY   73  58  59 W5        29.85R
PHILLIPS       MOSUNNY   74  61  62 SW7       29.82R
ANTIGO         PTSUNNY   72  61  69 W8        29.85S
TOMAHAWK       PTSUNNY   74  59  58 W7        29.83F
MERRILL        MOSUNNY   76  61  59 W13G18    29.85S
$$

WIZ013-073-262200-
NORTHEAST WISCONSIN

CITY           SKY/WX    TMP DP  RH WIND       PRES   REMARKS
IRON MOUNTAIN  PTSUNNY   69  59  70 NW9       29.83R
MARINETTE      PTSUNNY   73  66  78 N9        29.82R
OCONTO         MOSUNNY   78  62  57 W10G21    29.81S
$$

WIZ017-030-035>037-045-262200-
CENTRAL WISCONSIN

CITY           SKY/WX    TMP DP  RH WIND       PRES   REMARKS
MEDFORD        MOSUNNY   74  59  59 W9G16     29.84F
WAUSAU         MOSUNNY   78  57  48 W14       29.82F
MOSINEE        MOSUNNY   75  57  53 W13G18    29.85F
MARSHFIELD     MOSUNNY   78  58  49 W10G21    29.83F
WISC RAPIDS    MOSUNNY   80  56  43 W10G18    29.84F
STEVENS POINT  MOSUNNY   77  56  48 W9        29.84F
WAUPACA        SUNNY     82  56  41 W14       29.83F
SHAWANO        MOSUNNY   81  57  43 W16G23    29.82S
CLINTONVILLE   MOSUNNY   79  54  41 W15G22    29.82F
WAUTOMA        SUNNY     82  58  43 SW13G20   29.82F
$$

WIZ038-039-048-051-262200-
FOX VALLEY

CITY           SKY/WX    TMP DP  RH WIND       PRES   REMARKS
NWS GREEN BAY  MOSUNNY   80  61  52 W13       29.82S
APPLETON       MOSUNNY   79  55  44 W12G20    29.82S
OSHKOSH        SUNNY     80  58  46 W9G18     29.82F
FOND DU LAC    SUNNY     81  59  47 W15       29.83S
$$

WIZ022-050-052-262200-
EAST CENTRAL WISCONSIN

CITY           SKY/WX    TMP DP  RH WIND       PRES   REMARKS
EPHRAIM        FAIR      74  64  71 W12       29.81R
STURGEON BAY   NOT AVBL
MANITOWOC      MOSUNNY   81  59  47 W17G29    29.82S
SHEBOYGAN      SUNNY     82  59  45 SW13      29.83S
$$

LMZ563-521-522-541>543-262200-
LAKESHORE

STATION/POSITION TIME  TEMP    WIND        PRES    VSBY  WAVE
                       AIR SEA DIR/SP/G                  HT/PER
                 (UTC) (F)     (DEG/KT/KT) (MB)    (MI)  (FT/S)
SHEBOYGAN LKSHOR 2100   64     170/ 14/ 15 1010.1F
KEWAUNEE LKSHORE 2000          230/ 11/ 21 1008.8R
ALGOMA MARINA    2017          170/  8/  9   N/A
NORTHPORT PIER   2000   56     150/  4/  6 1009.5F
N MID LAKE BUOY  2050   49 45  210/ 16/ 16 1009.1F         2/ 3
SISTER BAY LKSHO 2019   71     320/  7/  8   N/A
CHAMBERS ISLAND  2000   65      60/  4/  4 1009.5S
MENOMINEE LKSHOR 2000   64     130/  5/  6 1008.0F
$$




USA.gov is the U.S. government's official web portal to all federal, state and local government web resources and services.